Overview Statistics Trail Chart Weather Telemetry Raw packets
 

This is the latest recevied weather packets stored in our database for station/object IT9DBI-3. If no packets are shown the sender has not sent any weather packets the latest 10 day(s).

<< 3 4 5 6 7 8 9 >>
Time Temp. Humidity Pressure Rain* Wind** Luminosity Snow
1788465478 33.89° C 51% 1015.9 hPa - - - -
1788464277 33.89° C 51% 1015.8 hPa - - - -
1788463076 33.89° C 51% 1015.6 hPa - - - -
1788461874 33.33° C 51% 1015.5 hPa - - - -
1788460673 33.33° C 51% 1015.3 hPa - - - -
1788459471 33.89° C 48% 1014.9 hPa - - - -
1788458270 33.89° C 47% 1014.6 hPa - - - -
1788457069 33.89° C 45% 1014.4 hPa - - - -
1788455867 33.89° C 45% 1014.3 hPa - - - -
1788454666 34.44° C 46% 1014.1 hPa - - - -
1788453465 35° C 44% 1014.1 hPa - - - -
1788452263 35° C 44% 1014.1 hPa - - - -
1788451062 35° C 43% 1014.1 hPa - - - -
1788449861 36.11° C 39% 1014.2 hPa - - - -
1788448672 35° C 43% 1014.3 hPa - - - -
1788447458 36.67° C 43% 1014.1 hPa - - - -
1788446257 36.67° C 41% 1014.2 hPa - - - -
1788445056 37.78° C 40% 1014.3 hPa - - - -
1788443854 37.22° C 42% 1014.5 hPa - - - -
1788442653 36.11° C 41% 1014.6 hPa - - - -
1788441451 36.67° C 42% 1014.6 hPa - - - -
1788440250 35.56° C 44% 1014.7 hPa - - - -
1788439049 36.11° C 43% 1014.7 hPa - - - -
1788437847 35.56° C 42% 1014.7 hPa - - - -
1788436646 35.56° C 40% 1014.9 hPa - - - -

* Rain since midnight (hover to see other rain measurements)
** Current wind speed in m/s (hover to see current wind gust speed)